• In Russia
  • List of Countries
  • For 7 days
  • Water Temperature
  • Satellite Maps
  • Weather Map
  • Weather Widgets
  • user-avatar
    Login

    Hourly Weather Bischofshofen

    Today, 22 April, Monday

    Time Temperature Precipitation Wind Pressure Humidity
    00:00 +9°C° 0 mm 2 mps 697 mmHg 86%
    01:00 +9°C° 0 mm 2 mps 697 mmHg 88%
    02:00 +9°C° 0 mm 2 mps 697 mmHg 90%
    03:00 +8°C° 0 mm 2 mps 696 mmHg 92%
    04:00 +8°C° 0 mm 2 mps 696 mmHg 94%
    05:00 +9°C° 0 mm 2 mps 696 mmHg 89%
    06:00 +10°C° 0 mm 2 mps 695 mmHg 85%
    07:00 +12°C° 0 mm 2 mps 695 mmHg 79%
    08:00 +15°C° 0 mm 2 mps 695 mmHg 69%
    09:00 +17°C° 0 mm 2 mps 695 mmHg 60%
    10:00 +21°C° 0 mm 1 mps 695 mmHg 50%
    11:00 +22°C° 0 mm 1 mps 694 mmHg 46%
    12:00 +23°C° 0 mm 1 mps 694 mmHg 43%
    13:00 +24°C° 0 mm 1 mps 694 mmHg 39%
    14:00 +23°C° 0 mm 2 mps 693 mmHg 40%
    15:00 +23°C° 0 mm 2 mps 693 mmHg 41%
    16:00 +21°C° 0 mm 2 mps 692 mmHg 42%
    17:00 +18°C° 0 mm 2 mps 692 mmHg 53%
    18:00 +16°C° 0 mm 2 mps 691 mmHg 64%
    19:00 +12°C° 0 mm 3 mps 691 mmHg 75%
    20:00 +11°C° 0 mm 3 mps 690 mmHg 77%
    21:00 +10°C° 0 mm 3 mps 690 mmHg 79%
    22:00 +9°C° 0 mm 3 mps 690 mmHg 81%
    23:00 +9°C° 0 mm 3 mps 690 mmHg 82%

    Tomorrow, 23 April, Tuesday

    Time Temperature Precipitation Wind Pressure Humidity
    00:00 +8°C° 0 mm 3 mps 690 mmHg 82%
    01:00 +8°C° 0 mm 3 mps 689 mmHg 82%
    02:00 +7°C° 0 mm 3 mps 689 mmHg 82%
    03:00 +7°C° 0 mm 3 mps 688 mmHg 82%
    04:00 +7°C° 0 mm 3 mps 688 mmHg 82%
    05:00 +8°C° 0 mm 3 mps 688 mmHg 79%
    06:00 +9°C° 0 mm 3 mps 688 mmHg 77%
    07:00 +10°C° 0 mm 4 mps 688 mmHg 74%
    08:00 +11°C° 0 mm 4 mps 688 mmHg 71%
    09:00 +12°C° 0 mm 3 mps 688 mmHg 68%
    10:00 +14°C° 0 mm 3 mps 688 mmHg 65%
    11:00 +14°C° 0 mm 3 mps 688 mmHg 62%
    12:00 +15°C° 0 mm 4 mps 688 mmHg 58%
    13:00 +17°C° 0 mm 4 mps 688 mmHg 55%
    14:00 +15°C° 0 mm 4 mps 688 mmHg 58%
    15:00 +15°C° 0 mm 4 mps 688 mmHg 61%
    16:00 +14°C° 0 mm 3 mps 688 mmHg 64%
    17:00 +13°C° 0 mm 3 mps 688 mmHg 68%
    18:00 +12°C° 0 mm 3 mps 688 mmHg 73%
    19:00 +11°C° 0 mm 3 mps 688 mmHg 77%
    20:00 +10°C° 0 mm 3 mps 688 mmHg 79%
    21:00 +10°C° 0 mm 3 mps 688 mmHg 80%
    22:00 +10°C° 0 mm 3 mps 689 mmHg 82%
    23:00 +9°C° 0 mm 3 mps 689 mmHg 83%

    Day after tomorrow, 24 April, Wednesday

    Time Temperature Precipitation Wind Pressure Humidity
    00:00 +9°C° 0 mm 3 mps 689 mmHg 84%
    01:00 +9°C° 0 mm 3 mps 689 mmHg 85%
    02:00 +9°C° 0 mm 3 mps 689 mmHg 85%
    03:00 +9°C° 0 mm 3 mps 690 mmHg 86%
    04:00 +9°C° 0 mm 3 mps 690 mmHg 87%
    05:00 +10°C° 0 mm 3 mps 690 mmHg 83%
    06:00 +11°C° 0 mm 3 mps 691 mmHg 80%
    07:00 +12°C° 0 mm 3 mps 691 mmHg 76%
    08:00 +14°C° 0 mm 3 mps 692 mmHg 70%
    09:00 +17°C° 0 mm 3 mps 693 mmHg 63%
    10:00 +19°C° 0 mm 3 mps 693 mmHg 57%
    11:00 +19°C° 0 mm 3 mps 693 mmHg 53%
    12:00 +20°C° 0 mm 3 mps 694 mmHg 50%
    13:00 +21°C° 0 mm 3 mps 694 mmHg 47%
    14:00 +20°C° 0 mm 4 mps 694 mmHg 49%
    15:00 +20°C° 0 mm 4 mps 693 mmHg 51%
    16:00 +19°C° 0 mm 4 mps 693 mmHg 53%
    17:00 +17°C° 0 mm 3 mps 693 mmHg 61%
    18:00 +14°C° 0 mm 3 mps 693 mmHg 69%
    19:00 +13°C° 0 mm 3 mps 693 mmHg 77%
    20:00 +12°C° 0 mm 3 mps 694 mmHg 79%
    21:00 +12°C° 0 mm 3 mps 694 mmHg 81%
    22:00 +11°C° 0 mm 3 mps 695 mmHg 83%
    23:00 +11°C° 0 mm 3 mps 695 mmHg 84%

    25 April, Thursday

    Time Temperature Precipitation Wind Pressure Humidity
    00:00 +12°C° 0 mm 2 mps 696 mmHg 85%
    01:00 +12°C° 0 mm 2 mps 696 mmHg 86%
    02:00 +12°C° 0 mm 2 mps 696 mmHg 86%
    03:00 +12°C° 0 mm 2 mps 696 mmHg 87%
    04:00 +11°C° 0 mm 3 mps 696 mmHg 87%
    05:00 +11°C° 0 mm 3 mps 696 mmHg 84%
    06:00 +12°C° 0 mm 3 mps 696 mmHg 81%
    07:00 +13°C° 0 mm 3 mps 696 mmHg 77%
    08:00 +14°C° 0 mm 3 mps 696 mmHg 70%
    09:00 +17°C° 0 mm 4 mps 696 mmHg 63%
    10:00 +19°C° 0 mm 4 mps 696 mmHg 55%
    11:00 +19°C° 0 mm 4 mps 696 mmHg 52%
    12:00 +20°C° 0 mm 4 mps 696 mmHg 48%
    13:00 +21°C° 0 mm 4 mps 696 mmHg 44%
    14:00 +21°C° 0 mm 4 mps 696 mmHg 46%
    15:00 +21°C° 0 mm 3 mps 696 mmHg 48%
    16:00 +21°C° 0 mm 3 mps 695 mmHg 50%
    17:00 +18°C° 0 mm 3 mps 695 mmHg 58%
    18:00 +16°C° 0 mm 3 mps 695 mmHg 66%
    19:00 +13°C° 0 mm 3 mps 695 mmHg 74%
    20:00 +13°C° 0 mm 3 mps 695 mmHg 76%
    21:00 +12°C° 0 mm 3 mps 695 mmHg 78%
    22:00 +12°C° 0 mm 3 mps 695 mmHg 79%
    23:00 +11°C° 0 mm 3 mps 695 mmHg 80%

    26 April, Friday

    Time Temperature Precipitation Wind Pressure Humidity
    00:00 +11°C° 0 mm 3 mps 695 mmHg 80%
    01:00 +11°C° 0 mm 3 mps 695 mmHg 81%
    02:00 +11°C° 0 mm 3 mps 695 mmHg 82%
    03:00 +11°C° 0 mm 3 mps 695 mmHg 83%
    04:00 +12°C° 0 mm 2 mps 695 mmHg 84%
    05:00 +12°C° 0 mm 2 mps 695 mmHg 81%
    06:00 +13°C° 0 mm 2 mps 695 mmHg 78%
    07:00 +14°C° 0 mm 2 mps 695 mmHg 75%
    08:00 +16°C° 0 mm 2 mps 696 mmHg 68%
    09:00 +18°C° 0 mm 1 mps 696 mmHg 61%
    10:00 +20°C° 0 mm 1 mps 696 mmHg 54%
    11:00 +19°C° 0.6 mm 1 mps 696 mmHg 60%
    12:00 +17°C° 0.6 mm 2 mps 696 mmHg 67%
    13:00 +16°C° 0.6 mm 2 mps 696 mmHg 73%
    14:00 +14°C° 2 mm 2 mps 696 mmHg 80%
    15:00 +10°C° 2 mm 3 mps 696 mmHg 88%
    16:00 +8°C° 2 mm 3 mps 696 mmHg 95%
    17:00 +7°C° 1.9 mm 2 mps 696 mmHg 95%
    18:00 +6°C° 1.9 mm 2 mps 697 mmHg 96%
    19:00 +6°C° 1.9 mm 1 mps 697 mmHg 96%
    20:00 +6°C° 0.7 mm 1 mps 697 mmHg 96%
    21:00 +6°C° 0.7 mm 1 mps 698 mmHg 96%
    22:00 +6°C° 0.7 mm 1 mps 698 mmHg 96%
    23:00 +6°C° 0.3 mm 1 mps 698 mmHg 97%

    27 April, Saturday

    Time Temperature Precipitation Wind Pressure Humidity
    00:00 +6°C° 0.3 mm 1 mps 699 mmHg 97%
    01:00 +5°C° 0.3 mm 1 mps 699 mmHg 97%
    02:00 +5°C° 0.4 mm 1 mps 699 mmHg 97%
    03:00 +5°C° 0.4 mm 1 mps 699 mmHg 97%
    04:00 +5°C° 0.4 mm 1 mps 700 mmHg 97%
    05:00 +6°C° 0.7 mm 1 mps 700 mmHg 97%
    06:00 +6°C° 0.7 mm 1 mps 700 mmHg 96%
    07:00 +6°C° 0.7 mm 1 mps 700 mmHg 96%
    08:00 +6°C° 0.8 mm 1 mps 700 mmHg 96%
    09:00 +6°C° 0.8 mm 2 mps 700 mmHg 95%
    10:00 +6°C° 0.8 mm 2 mps 700 mmHg 95%
    11:00 +6°C° 0.5 mm 2 mps 700 mmHg 94%
    12:00 +7°C° 0.5 mm 2 mps 700 mmHg 94%
    13:00 +7°C° 0.5 mm 2 mps 700 mmHg 93%
    14:00 +7°C° 0.4 mm 2 mps 700 mmHg 93%
    15:00 +8°C° 0.4 mm 2 mps 700 mmHg 93%
    16:00 +9°C° 0.4 mm 1 mps 700 mmHg 93%
    17:00 +8°C° 0.2 mm 1 mps 701 mmHg 95%
    18:00 +7°C° 0.2 mm 1 mps 701 mmHg 96%
    19:00 +7°C° 0.2 mm 1 mps 701 mmHg 97%
    20:00 +7°C° 0.2 mm 1 mps 702 mmHg 97%
    21:00 +6°C° 0.2 mm 1 mps 702 mmHg 98%
    22:00 +6°C° 0.2 mm 1 mps 703 mmHg 98%
    23:00 +6°C° 0.2 mm 1 mps 703 mmHg 97%
    Show more